Location: Newark
(48.8833°N, 0.9236°W)
Time: 14:53:44
(UTC+00:00)

Transit 2A - Visible Passes

Search period start: 13 November 2019 00:00
Search period end: 23 November 2019 00:00
Orbit: 601 x 957 km, 66.7° (Epoch: 12 November)

Date Brightness Start Highest point End Pass type
(mag) Time Alt. Az. Time Alt. Az. Time Alt. Az.
16 Nov 8.1 18:54:05 10° N 18:54:10 10° N 18:54:10 10° N visible
17 Nov 7.9 18:20:43 10° N 18:20:54 10° NNE 18:20:54 10° NNE visible
18 Nov 8.3 19:28:02 10° NNW 19:28:10 11° NNW 19:28:10 11° NNW visible
19 Nov 7.9 18:54:07 10° NNW 18:54:57 13° N 18:54:57 13° N visible
20 Nov 7.6 18:20:16 10° N 18:21:46 14° NNE 18:21:46 14° NNE visible
21 Nov 7.5 17:46:30 10° N 17:48:30 13° NNE 17:48:38 13° NNE visible
21 Nov 8.1 19:28:28 10° NNW 19:29:08 14° NNW 19:29:08 14° NNW visible
22 Nov 7.6 17:12:59 10° N 17:14:00 11° NNE 17:15:02 10° NE visible
22 Nov 7.4 18:54:27 10° NNW 18:56:03 20° N 18:56:03 20° N visible
